Stations météo

Publicité
Bastia, France (7790): Température de l'air & dewpoint: 12.02.2020 07:00:00 - 18.02.2020 07:00:00 (CET)Bastia, France (7790): Température de l'air 5cm: 12.02.2020 07:00:00 - 18.02.2020 07:00:00 (CET)Bastia, France (7790): Température de l'air -20cm & Température de l'air -100cm: 12.02.2020 07:00:00 - 18.02.2020 07:00:00 (CET)Bastia, France (7790): Vitesse du vent & gusts: 12.02.2020 07:00:00 - 18.02.2020 07:00:00 (CET)Bastia, France (7790): Direction du vent: 12.02.2020 07:00:00 - 18.02.2020 07:00:00 (CET)Bastia, France (7790): reduced air pressure: 12.02.2020 07:00:00 - 18.02.2020 07:00:00 (CET)Bastia, France (7790): visibility: 12.02.2020 07:00:00 - 18.02.2020 07:00:00 (CET)Bastia, France (7790): Ensoleillement: 12.02.2020 07:00:00 - 18.02.2020 07:00:00 (CET)Bastia, France (7790): Quantités de précipitations: 12.02.2020 07:00:00 - 18.02.2020 07:00:00 (CET)
Date & Time tt [°C] td [°C] tt 5cm [°C] tt -20cm [°C] tt -100cm [°C] ff [km/h] ff [knt] fx [km/h] fx [knt] dd ppp [hPa] vv [km] sd [min] rr [mm]
18.02.2020 07:00:00 6,8 5,4 2,8 11,6 12,5 6 3 10 5 W 1023,7 38 0 0,0
18.02.2020 06:00:00 6,6 5,5 2,8 11,6 12,5 7 4 11 6 SSW 1023,5 20 0 0,0
18.02.2020 05:00:00 7,5 6,0 3,7 11,6 12,5 4 2 18 10 WSW 1023,7 38 0 0,0
18.02.2020 04:00:00 8,3 6,8 6,3 11,6 12,5 11 6 16 9 S 1023,7 46 0 0,2
18.02.2020 03:00:00 8,9 7,5 3,3 11,7 12,5 13 7 16 9 SSW 1024,0 41 0 0,0
18.02.2020 02:00:00 7,6 6,5 2,9 11,7 12,6 7 4 11 6 SSW 1024,7 19 0 0,0
18.02.2020 01:00:00 8,4 7,6 2,9 11,6 12,5 6 3 12 7 SW 1024,9 32 0 0,0
18.02.2020 00:00:00 8,0 7,1 3,3 11,6 12,5 9 5 11 6 SSW 1025,1 18 0 0,0
17.02.2020 23:00:00 9,7 8,5 3,4 11,6 12,6 7 4 10 5 SW 1025,5 29 0 0,0
17.02.2020 22:00:00 10,6 9,0 5,8 11,6 12,5 6 3 9 5 SW 1025,7 33 0 0,0
17.02.2020 21:00:00 11,8 9,5 9,0 11,5 12,5 4 2 8 4 SW 1025,8 21 0 0,0
17.02.2020 20:00:00 12,9 9,9 11,3 11,5 12,5 3 2 8 4 W 1025,7 20 0 0,0
17.02.2020 19:00:00 12,9 9,7 11,3 11,4 12,5 0 0 9 5 N 1025,6 40 0 0,0
17.02.2020 18:00:00 13,1 9,9 12,1 11,4 12,5 3 2 11 6 ENE 1025,3 57 0 0,0
17.02.2020 17:00:00 13,6 10,0 13,3 11,3 12,5 8 4 19 11 NNE 1025,2 18 0 0,0
17.02.2020 16:00:00 14,3 8,9 14,4 11,3 12,5 13 7 21 11 NNW 1025,5 60 0 0,0
17.02.2020 15:00:00 14,2 9,6 15,3 11,3 12,5 8 4 21 11 N 1026,0 58 0 0,0
17.02.2020 14:00:00 14,3 9,5 16,0 11,2 12,5 6 4 17 9 E 1026,3 60 0 0,0
17.02.2020 13:00:00 15,1 9,7 19,8 11,2 12,5 11 6 20 11 E 1026,9 60 35 0,0
17.02.2020 12:00:00 15,4 9,7 23,6 11,3 12,5 11 6 19 10 E 1027,6 19 60 0,0
17.02.2020 11:00:00 15,2 9,3 20,1 11,3 12,5 8 4 16 9 SE 1028,0 20 60 0,0
17.02.2020 10:00:00 13,6 7,4 14,7 11,4 12,5 6 3 9 5 SSW 1028,2 55 60 0,0
17.02.2020 09:00:00 10,6 7,3 6,2 11,4 12,5 5 3 11 6 SSW 1028,3 57 60 0,0
17.02.2020 08:00:00 7,1 5,6 4,8 11,4 12,5 8 4 14 8 SSW 1028,2 53 22 0,0
17.02.2020 07:00:00 7,2 5,5 4,4 11,5 12,5 12 7 17 9 S 1028,0 58 0 0,0
17.02.2020 06:00:00 7,6 5,6 3,5 11,5 12,5 9 5 16 9 SSW 1028,3 60 0 0,0
17.02.2020 05:00:00 7,5 5,8 1,3 11,6 12,5 8 5 18 10 SW 1028,4 18 0 0,0
17.02.2020 04:00:00 8,0 6,1 0,4 11,6 12,5 7 4 11 6 SW 1028,5 51 0 0,0
17.02.2020 03:00:00 7,7 6,3 0,9 11,6 12,5 8 4 11 6 SW 1028,8 43 0 0,0
17.02.2020 02:00:00 6,8 5,4 0,6 11,6 12,5 6 3 8 5 S 1029,1 30 0 0,0
17.02.2020 01:00:00 7,4 6,7 1,1 11,6 12,5 2 1 5 3 WSW 1029,1 17 0 0,0
17.02.2020 00:00:00 7,8 6,4 1,7 11,6 12,5 4 2 9 5 WSW 1029,2 16 0 0,0
16.02.2020 23:00:00 8,9 7,7 2,0 11,6 12,5 4 2 6 3 SSW 1029,5 13 0 0,0
16.02.2020 22:00:00 10,3 8,4 4,5 11,6 12,5 4 2 5 3 W 1029,8 16 0 0,0
16.02.2020 21:00:00 10,6 8,2 7,7 11,5 12,5 5 3 7 4 SSW 1029,8 41 0 0,0
16.02.2020 20:00:00 10,8 8,4 6,0 11,5 12,5 3 2 10 5 SSW 1029,7 20 0 0,0
16.02.2020 19:00:00 10,0 7,8 5,1 11,4 12,5 6 4 8 5 S 1029,6 29 0 0,0
16.02.2020 18:00:00 12,1 8,6 7,4 11,4 12,5 4 2 8 5 ESE 1029,4 35 27 0,0
16.02.2020 17:00:00 14,2 9,2 16,4 11,3 12,5 5 3 16 8 SE 1029,1 59 54 0,0
16.02.2020 16:00:00 14,4 9,4 14,6 11,2 12,5 8 4 15 8 ESE 1029,1 49 13 0,0
16.02.2020 15:00:00 14,3 9,1 16,6 11,2 12,5 8 4 20 11 E 1029,5 56 0 0,0
16.02.2020 14:00:00 14,9 9,5 20,5 11,1 12,5 11 6 21 12 E 1029,6 56 50 0,0
16.02.2020 13:00:00 15,3 9,0 17,1 11,2 12,5 14 7 23 12 ESE 1029,8 20 53 0,0
16.02.2020 12:00:00 16,0 10,3 25,1 11,2 12,5 12 6 22 12 E 1030,5 60 60 0,0
16.02.2020 11:00:00 15,4 9,3 19,4 11,3 12,5 5 3 14 8 SSE 1030,9 20 60 0,0
16.02.2020 10:00:00 13,1 6,4 14,5 11,3 12,5 10 5 18 10 SSW 1030,6 41 60 0,0
16.02.2020 09:00:00 10,6 5,8 7,4 11,4 12,5 11 6 18 10 SW 1029,9 57 60 0,0
16.02.2020 08:00:00 7,5 4,6 4,5 11,4 12,5 11 6 16 9 SW 1029,4 58 20 0,0
16.02.2020 07:00:00 7,3 3,9 5,4 11,4 12,5 11 6 22 12 SSW 1028,7 60 0 0,0
16.02.2020 06:00:00 7,5 3,5 4,6 11,5 12,5 16 9 27 15 SW 1028,4 60 0 0,0
16.02.2020 05:00:00 6,8 3,2 2,3 11,6 12,5 11 6 19 10 SSW 1029,2 60 0 0,0
16.02.2020 04:00:00 5,7 3,5 2,1 11,6 12,5 8 4 11 6 SW 1029,4 60 0 0,0
16.02.2020 03:00:00 7,1 4,2 2,6 11,6 12,5 6 3 11 6 SW 1028,9 60 0 0,0
16.02.2020 02:00:00 7,1 4,4 3,3 11,6 12,5 7 4 16 9 SSW 1028,4 37 0 0,0
16.02.2020 01:00:00 9,2 5,4 0,6 11,7 12,5 9 5 19 11 SSW 1028,7 59 0 0,0
16.02.2020 00:00:00 7,2 4,5 1,4 11,7 12,5 5 3 14 8 WSW 1028,7 18 0 0,0
15.02.2020 23:00:00 8,8 5,7 2,7 11,7 12,5 7 4 12 6 SSW 1028,8 60 0 0,0
15.02.2020 22:00:00 9,5 6,4 3,8 11,7 12,5 7 4 29 16 W 1028,8 24 0 0,0
15.02.2020 21:00:00 8,2 4,8 2,8 11,6 12,5 8 5 16 9 S 1027,9 58 0 0,0
15.02.2020 20:00:00 8,6 4,8 3,2 11,6 12,5 7 4 10 6 WSW 1028,4 25 0 0,0
15.02.2020 19:00:00 9,5 5,1 2,5 11,5 12,5 7 4 9 5 SW 1028,0 14 0 0,0
15.02.2020 18:00:00 12,5 6,7 5,6 11,4 12,5 3 1 8 4 SSE 1027,4 60 31 0,0
15.02.2020 17:00:00 15,0 6,0 20,0 11,4 12,5 6 3 22 12 E 1026,9 60 60 0,0
15.02.2020 16:00:00 16,0 5,6 22,9 11,3 12,5 9 5 13 7 E 1027,0 20 60 0,0
15.02.2020 15:00:00 16,7 2,3 24,3 11,3 12,4 9 5 16 8 E 1026,9 60 60 0,0
15.02.2020 14:00:00 17,1 2,7 25,1 11,3 12,5 10 5 16 9 ESE 1026,5 57 60 0,0
15.02.2020 13:00:00 17,3 4,3 26,1 11,3 12,5 10 5 17 9 E 1026,9 57 60 0,0
15.02.2020 12:00:00 17,4 4,7 25,9 11,3 12,5 7 4 15 8 E 1027,6 18 60 0,0
15.02.2020 11:00:00 16,0 5,3 20,1 11,4 12,5 5 3 14 7 SSW 1027,5 46 60 0,0
15.02.2020 10:00:00 13,8 5,4 16,1 11,4 12,5 7 4 12 6 SW 1027,5 20 60 0,0
15.02.2020 09:00:00 10,8 4,7 7,9 11,5 12,5 7 4 19 10 SSW 1027,4 54 60 0,0
15.02.2020 08:00:00 8,4 3,6 5,2 11,5 12,5 14 7 22 12 SW 1026,7 42 19 0,0
15.02.2020 07:00:00 7,4 4,2 2,7 11,6 12,5 13 7 19 11 SW 1026,3 59 0 0,0
15.02.2020 06:00:00 5,7 3,9 2,5 11,6 12,5 9 5 13 7 SW 1026,1 55 0 0,0
15.02.2020 05:00:00 6,0 3,8 3,2 11,6 12,4 9 5 13 7 SW 1025,7 52 0 0,0
15.02.2020 04:00:00 5,8 4,4 3,1 11,7 12,5 9 5 11 6 SW 1025,4 50 0 0,0
15.02.2020 03:00:00 7,2 4,8 4,9 11,7 12,5 9 5 12 7 SW 1025,4 48 0 0,0
15.02.2020 02:00:00 7,7 5,0 6,0 11,7 12,5 9 5 12 6 SW 1025,3 54 0 0,0
15.02.2020 01:00:00 8,0 5,1 5,8 11,7 12,5 9 5 11 6 SW 1025,1 53 0 0,0
15.02.2020 00:00:00 8,0 4,9 6,4 11,7 12,5 9 5 12 6 SW 1024,9 59 0 0,0
14.02.2020 23:00:00 7,6 4,9 2,5 11,7 12,4 9 5 13 7 SW 1024,3 46 0 0,0
14.02.2020 22:00:00 7,8 4,6 2,2 11,7 12,4 8 4 11 6 SW 1023,8 45 0 0,0
14.02.2020 21:00:00 8,2 5,1 0,4 11,6 12,4 7 4 10 5 SW 1023,2 28 0 0,0
14.02.2020 20:00:00 8,6 7,1 1,2 11,6 12,4 6 3 9 5 SW 1022,6 15 0 0,0
14.02.2020 19:00:00 10,4 9,0 2,9 11,5 12,4 4 2 10 5 SSW 1021,6 14 0 0,0
14.02.2020 18:00:00 13,2 10,2 9,6 11,4 12,4 6 3 22 12 SW 1020,5 16 29 0,0
14.02.2020 17:00:00 15,2 10,6 17,8 11,3 12,4 16 9 25 13 ESE 1019,7 18 60 0,0
14.02.2020 16:00:00 18,0 10,1 23,4 11,3 12,4 9 5 19 10 ESE 1019,1 20 60 0,0
14.02.2020 15:00:00 17,9 9,5 22,5 11,2 12,4 15 8 34 18 SE 1018,9 20 60 0,0
14.02.2020 14:00:00 17,6 9,7 24,1 11,2 12,4 11 6 32 17 E 1018,6 17 60 0,0
14.02.2020 13:00:00 18,2 5,4 24,8 11,2 12,4 16 9 26 14 ESE 1018,2 19 60 0,0
14.02.2020 12:00:00 18,4 6,6 26,2 11,3 12,4 11 6 19 10 N 1018,0 19 60 0,0
14.02.2020 11:00:00 17,1 5,7 21,4 11,3 12,4 9 5 23 12 E 1017,4 36 60 0,0
14.02.2020 10:00:00 15,8 6,2 18,6 11,3 12,4 16 8 29 16 NNW 1017,1 19 60 0,0
14.02.2020 09:00:00 15,2 4,0 11,0 11,4 12,5 15 8 42 23 WNW 1016,1 46 60 0,0
14.02.2020 08:00:00 14,2 1,1 6,7 11,4 12,4 12 6 35 19 ENE 1014,5 50 17 0,0
14.02.2020 07:00:00 13,3 0,6 6,3 11,4 12,4 6 3 27 14 E 1013,3 60 0 0,0
14.02.2020 06:00:00 13,2 2,4 7,4 11,5 12,4 10 5 30 16 SW 1013,4 60 0 0,0
14.02.2020 05:00:00 12,0 7,1 6,7 11,5 12,4 19 11 40 22 WSW 1012,2 60 0 0,0
14.02.2020 04:00:00 10,5 8,4 7,2 11,5 12,4 14 8 34 19 E 1013,1 60 0 0,0
14.02.2020 03:00:00 9,7 7,1 7,0 11,5 12,4 9 5 25 13 ESE 1014,3 60 0 0,0
14.02.2020 02:00:00 10,1 7,3 6,0 11,5 12,4 8 5 20 11 S 1015,6 58 0 0,0
14.02.2020 01:00:00 9,0 6,6 5,8 11,5 12,4 10 5 21 11 S 1016,1 59 0 0,0
14.02.2020 00:00:00 8,5 6,5 6,6 11,6 12,4 12 6 18 10 S 1017,0 57 0 0,0
13.02.2020 23:00:00 9,0 6,4 6,8 11,5 12,4 10 6 22 12 S 1017,8 53 0 0,0
13.02.2020 22:00:00 9,1 7,4 5,2 11,5 12,4 18 10 23 13 SSW 1018,6 47 0 0,0
13.02.2020 21:00:00 8,9 7,2 4,5 11,5 12,4 8 4 16 8 WNW 1019,9 36 0 0,0
13.02.2020 20:00:00 8,9 7,3 4,0 11,4 12,4 5 3 9 5 SW 1020,1 32 0 0,0
13.02.2020 19:00:00 9,6 7,4 5,4 11,4 12,4 8 5 10 5 SSW 1020,2 35 0 0,0
13.02.2020 18:00:00 12,0 8,5 6,4 11,2 12,4 3 2 15 8 S 1019,9 51 28 0,0
13.02.2020 17:00:00 13,7 8,9 15,0 11,2 12,4 10 5 14 7 SE 1019,8 58 27 0,0
13.02.2020 16:00:00 14,6 8,3 17,3 11,1 12,4 7 4 16 8 ENE 1020,4 51 46 0,0
13.02.2020 15:00:00 14,9 9,0 22,4 11,1 12,4 11 6 24 13 E 1020,6 20 60 0,0
13.02.2020 14:00:00 15,7 9,1 24,9 11,1 12,4 11 6 18 10 NE 1021,1 20 60 0,0
13.02.2020 13:00:00 15,4 7,4 24,2 11,2 12,4 10 5 19 10 ENE 1021,8 20 60 0,0
13.02.2020 12:00:00 15,0 8,7 23,3 11,2 12,4 9 5 19 10 ENE 1022,2 19 60 0,0
13.02.2020 11:00:00 15,4 6,7 17,9 11,3 12,4 3 2 11 6 SE 1021,9 25 60 0,0
13.02.2020 10:00:00 12,0 2,7 13,0 11,3 12,3 7 4 16 8 SSW 1021,8 58 60 0,0
13.02.2020 09:00:00 9,1 1,3 4,4 11,4 12,4 8 4 16 9 SW 1021,9 57 58 0,0
13.02.2020 08:00:00 5,4 -0,2 2,9 11,5 12,3 9 5 18 10 SW 1021,7 60 2 0,0
13.02.2020 07:00:00 5,1 -0,3 2,5 11,5 12,3 11 6 19 10 SSW 1021,4 60 0 0,0
13.02.2020 06:00:00 5,1 -0,5 2,5 11,5 12,3 9 5 19 11 SW 1021,5 60 0 0,0
13.02.2020 05:00:00 7,1 -0,4 4,2 11,6 12,3 14 8 21 11 SW 1021,2 60 0 0,0
13.02.2020 04:00:00 7,7 0,4 5,2 11,7 12,3 12 7 18 10 SW 1020,8 60 0 0,0
13.02.2020 03:00:00 7,4 0,8 5,3 11,7 12,3 12 7 20 11 SSW 1021,0 60 0 0,0
13.02.2020 02:00:00 9,1 -0,3 5,9 11,7 12,3 16 9 25 14 SW 1020,9 60 0 0,0
13.02.2020 01:00:00 8,2 0,9 1,4 11,7 12,3 16 9 25 13 SW 1021,2 60 0 0,0
13.02.2020 00:00:00 7,8 3,1 2,3 11,7 12,3 6 3 13 7 SW 1021,0 60 0 0,0
12.02.2020 23:00:00 8,3 3,5 3,4 11,7 12,3 10 5 17 9 SW 1021,0 60 0 0,0
12.02.2020 22:00:00 7,2 4,2 3,4 11,7 12,3 9 5 11 6 SW 1021,0 60 0 0,0
12.02.2020 21:00:00 8,0 3,8 3,8 11,7 12,3 8 5 11 6 SW 1021,0 59 0 0,0
12.02.2020 20:00:00 9,1 3,9 4,3 11,7 12,3 10 5 12 7 SW 1020,6 46 0 0,0
12.02.2020 19:00:00 11,5 -0,3 4,5 11,6 12,3 5 3 14 7 NNW 1020,4 60 0 0,0
12.02.2020 18:00:00 12,0 8,7 6,6 11,5 12,3 9 5 14 7 NNW 1019,8 40 0 0,0
12.02.2020 17:00:00 14,1 9,3 13,6 11,5 12,3 9 5 23 13 SE 1019,5 51 21 0,0
12.02.2020 16:00:00 16,1 8,8 19,5 11,4 12,2 15 8 22 12 SE 1018,9 20 60 0,0
12.02.2020 15:00:00 16,9 8,1 22,5 11,4 12,3 13 7 22 12 SSE 1018,7 18 58 0,0
12.02.2020 14:00:00 17,1 7,7 23,3 11,4 12,2 15 8 28 15 ESE 1018,9 18 60 0,0
12.02.2020 13:00:00 17,8 5,7 18,6 11,4 12,3 6 3 25 13 NNE 1019,1 43 47 0,0
12.02.2020 12:00:00 17,3 6,2 22,9 11,5 12,3 15 8 29 15 N 1019,7 20 60 0,0
12.02.2020 11:00:00 17,3 2,8 22,1 11,5 12,2 10 5 22 12 N 1019,5 46 60 0,0
12.02.2020 10:00:00 16,3 3,7 18,4 11,5 12,2 14 8 20 11 NNW 1019,2 60 60 0,0
12.02.2020 09:00:00 14,5 4,8 6,7 11,6 12,2 8 4 15 8 NNE 1018,9 48 60 0,0
12.02.2020 08:00:00 9,2 6,5 2,8 11,6 12,2 5 3 20 11 W 1018,2 19 15 0,0
12.02.2020 07:00:00 10,0 6,0 3,8 11,6 12,2 9 5 15 8 WNW 1017,5 37 0 0,0

tt = Température de l'air
td = dewpoint
tt 5cm = Température de l'air 5cm
tt -20cm = Température de l'air -20cm
tt -100cm = Température de l'air -100cm
ff = Vitesse du vent
fx = gusts
dd = Direction du vent
ppp = reduced air pressure
vv = visibility
sd = Ensoleillement
rr = Quantités de précipitations

stations d'obs. à proximité